Location: Newark
(32.5233°N, 7.6150°W)
Time: 20:32:44
(UTC+00:00)

Hubble Space Telescope - Visible Passes

Search period start: 19 July 2019 00:00
Search period end: 29 July 2019 00:00
Orbit: 536 x 540 km, 28.5° (Epoch: 19 July)

Date Brightness Start Highest point End Pass type
(mag) Time Alt. Az. Time Alt. Az. Time Alt. Az.
26 Jul 3.2 04:05:24 10° SSE 04:05:58 10° SSE 04:06:47 10° SE visible
27 Jul 3.0 03:55:24 13° SSE 03:55:24 13° SSE 03:57:23 10° SE visible
28 Jul 2.8 03:45:23 16° SE 03:45:23 16° SE 03:47:22 10° ESE visible
